Temp
7 7 7 7 7 7 6 6 7 6 5 5 5 5 5 4 4 4 4 4 4 4 5 5 4 4 4 4 4 4 4 4 4 4 4 4 4 4 4 4 4 4 4
7 7 7 7 7 7 7 6 6 6 6 5 5 4 4 4 4 4 4 4 4 4 4 4 4 4 4 4 4 4 3 3 3 3 3 3 3 3 3 3 3 3 3
6 6 6 7 7 7 7 7 6 6 6 5 4 4 3 3 3 3 3 3 3 3 3 3 3 3 3 3 3 3 3 2 2 2 2 2 3 2 2 2 2 2 2
5 6 6 6 6 7 7 6 6 5 5 5 4 3 2 1 1 2 2 2 2 2 2 2 2 2 2 2 2 2 2 2 2 2 2 2 2 2 2 2 1 1 1
4 4 5 5 6 5 6 6 5 5 4 4 4 3 2 1 0 0 1 1 1 1 1 1 1 2 2 2 2 2 2 1 1 1 1 1 1 1 1 1 1 1 1
2 3 3 3 3 3 4 4 4 4 3 3 3 2 2 1 0 0 -0 -0 -0 0 0 0 0 1 1 1 1 1 1 1 1 1 1 1 1 0 0 0 0 0 0
1 1 1 0 1 1 1 2 2 2 2 2 2 2 1 0 0 0 -0 -0 -0 -0 -1 -1 -0 -0 0 0 0 0 0 0 0 0 0 0 0 0 0 0 -0 -0 -0
-1 -1 -0 -1 -1 -1 -1 -0 -0 0 1 1 0 0 -0 -1 -1 -1 -1 -1 -1 -1 -0 -0 -1 -1 -1 -1 -0 -0 -0 -0 -0 -0 -0 -0 -0 -0 -0 -0 -0 -1 -1
-5 -5 -4 -4 -4 -4 -4 -3 -3 -2 -2 -2 -2 -2 -2 -3 -3 -3 -3 -2 -2 -2 -1 -1 -1 -1 -1 -1 -1 -1 -1 -1 -1 -1 -1 -1 -1 -1 -1 -1 -1 -1 -1
-6 -6 -6 -6 -6 -6 -7 -7 -6 -5 -4 -4 -4 -4 -3 -3 -3 -3 -4 -4 -4 -3 -2 -2 -2 -2 -2 -2 -2 -2 -2 -1 -2 -2 -2 -2 -2 -2 -2 -2 -2 -2 -2
-7 -6 -6 -6 -6 -6 -7 -7 -7 -7 -6 -5 -4 -4 -3 -3 -3 -3 -4 -5 -5 -5 -4 -3 -3 -3 -3 -3 -2 -2 -2 -2 -2 -2 -2 -2 -2 -2 -2 -2 -2 -2 -2
-9 -9 -8 -8 -7 -6 -6 -7 -8 -8 -7 -6 -6 -5 -5 -5 -4 -4 -4 -4 -5 -5 -6 -6 -5 -4 -4 -4 -3 -3 -3 -3 -3 -3 -2 -2 -3 -3 -2 -2 -2 -2 -2
-11 -11 -11 -11 -11 -10 -9 -9 -9 -9 -9 -8 -7 -7 -7 -6 -6 -5 -5 -5 -5 -5 -5 -5 -6 -6 -6 -6 -5 -5 -4 -4 -4 -4 -3 -3 -3 -3 -3 -3 -3 -3 -3
-13 -13 -13 -12 -12 -12 -12 -12 -12 -11 -11 -10 -9 -9 -8 -8 -8 -8 -8 -7 -7 -6 -6 -6 -6 -6 -6 -6 -6 -6 -5 -5 -5 -5 -5 -4 -4 -5 -5 -4 -4 -4 -4
-14 -14 -14 -14 -13 -13 -13 -13 -13 -13 -13 -12 -12 -11 -11 -10 -10 -10 -9 -9 -9 -8 -8 -8 -7 -7 -7 -6 -6 -6 -6 -6 -5 -5 -6 -5 -5 -6 -5 -6 -6 -6 -5
-15 -14 -14 -14 -14 -14 -14 -14 -14 -14 -13 -13 -13 -13 -13 -13 -12 -12 -11 -11 -11 -10 -10 -9 -9 -9 -9 -8 -8 -8 -8 -7 -7 -7 -7 -7 -7 -7 -7 -7 -7 -7 -7
-15 -15 -15 -15 -15 -15 -15 -15 -16 -15 -15 -15 -15 -15 -14 -14 -14 -13 -13 -12 -12 -12 -12 -12 -11 -11 -10 -10 -9 -9 -9 -9 -9 -9 -8 -8 -8 -8 -9 -8 -8 -8 -8
-17 -17 -17 -17 -16 -16 -16 -16 -16 -16 -16 -16 -16 -16 -16 -16 -16 -15 -15 -15 -14 -13 -13 -13 -13 -12 -13 -12 -12 -11 -10 -10 -10 -10 -10 -10 -10 -9 -10 -9 -9 -9 -9
-17 -17 -17 -17 -17 -17 -16 -16 -16 -16 -16 -16 -16 -16 -16 -15 -15 -15 -15 -15 -16 -16 -16 -15 -14 -14 -14 -14 -14 -13 -12 -12 -12 -12 -12 -11 -11 -11 -12 -11 -11 -11 -11
-18 -17 -18 -18 -18 -18 -17 -17 -17 -17 -17 -17 -17 -17 -16 -16 -16 -16 -15 -15 -15 -15 -15 -15 -15 -15 -15 -15 -14 -14 -14 -13 -13 -12 -13 -13 -13 -13 -13 -13 -13 -12 -12
-18 -18 -18 -18 -18 -18 -18 -18 -18 -18 -18 -17 -17 -17 -17 -17 -17 -16 -16 -16 -16 -16 -15 -15 -15 -15 -15 -15 -15 -15 -15 -14 -14 -14 -14 -14 -14 -14 -14 -15 -14 -14 -14
-19 -19 -19 -19 -19 -19 -19 -19 -19 -19 -19 -18 -18 -18 -18 -18 -18 -18 -17 -17 -17 -17 -16 -16 -16 -16 -16 -16 -16 -16 -16 -15 -15 -15 -15 -15 -15 -15 -15 -15 -15 -16 -16
-20 -20 -20 -20 -20 -21 -21 -20 -20 -20 -20 -20 -19 -19 -19 -19 -19 -19 -18 -18 -18 -18 -18 -17 -17 -17 -17 -16 -16 -16 -16 -16 -16 -15 -15 -15 -16 -16 -16 -15 -16 -16 -16
-21 -21 -21 -21 -21 -22 -22 -22 -22 -22 -21 -21 -21 -21 -21 -20 -20 -20 -20 -20 -19 -19 -19 -19 -18 -18 -18 -18 -17 -17 -17 -17 -17 -17 -17 -16 -16 -16 -16 -16 -17 -17 -17
-23 -23 -23 -23 -23 -23 -23 -24 -24 -24 -23 -23 -23 -23 -22 -22 -22 -22 -22 -21 -21 -21 -21 -20 -20 -19 -19 -19 -19 -19 -19 -18 -18 -18 -18 -18 -18 -18 -18 -18 -18 -18 -18
-24 -24 -24 -25 -25 -25 -25 -25 -25 -25 -25 -25 -24 -24 -24 -24 -24 -24 -24 -24 -24 -23 -23 -23 -22 -21 -21 -20 -20 -20 -20 -20 -20 -20 -20 -19 -19 -19 -19 -19 -19 -19 -19
Height
3092 3093 3094 3095 3096 3097 3098 3100 3100 3101 3103 3105 3108 3111 3113 3113 3114 3115 3116 3116 3117 3118 3119 3120 3121 3122 3123 3124 3126 3128 3129 3131 3133 3135 3136 3137 3139 3141 3142 3144 3146 3147 3149
3085 3085 3085 3087 3088 3089 3091 3092 3094 3095 3095 3097 3100 3103 3105 3106 3107 3108 3109 3110 3111 3112 3113 3114 3115 3116 3117 3119 3121 3123 3124 3126 3128 3130 3131 3133 3135 3136 3138 3140 3141 3143 3145
3077 3078 3078 3079 3080 3081 3082 3083 3084 3086 3086 3089 3091 3094 3096 3099 3101 3103 3104 3104 3104 3105 3106 3107 3109 3110 3111 3113 3114 3116 3118 3120 3122 3124 3126 3128 3130 3132 3134 3135 3137 3138 3140
3070 3071 3072 3072 3073 3073 3073 3074 3075 3077 3078 3078 3080 3083 3086 3089 3091 3092 3092 3093 3095 3097 3098 3099 3101 3103 3104 3106 3108 3109 3111 3113 3116 3117 3120 3122 3125 3126 3129 3131 3132 3134 3136
3064 3065 3065 3065 3065 3065 3065 3066 3066 3068 3070 3071 3072 3073 3076 3077 3078 3081 3082 3084 3086 3088 3089 3091 3092 3094 3096 3098 3100 3102 3104 3106 3109 3111 3113 3116 3118 3120 3123 3124 3126 3128 3129
3058 3059 3058 3058 3057 3058 3057 3057 3057 3059 3061 3063 3064 3066 3066 3068 3069 3070 3070 3072 3075 3078 3080 3082 3083 3085 3087 3090 3092 3094 3095 3098 3100 3103 3105 3108 3110 3113 3114 3117 3119 3121 3123
3054 3053 3053 3053 3053 3052 3052 3052 3051 3051 3053 3055 3056 3058 3059 3060 3061 3062 3063 3064 3065 3066 3068 3070 3072 3074 3077 3080 3082 3084 3087 3090 3092 3094 3097 3099 3101 3104 3106 3109 3112 3114 3116
3047 3046 3047 3046 3047 3047 3047 3047 3046 3046 3045 3046 3048 3050 3051 3052 3053 3054 3055 3055 3057 3059 3060 3060 3061 3064 3066 3068 3071 3073 3076 3079 3082 3084 3087 3090 3092 3094 3097 3100 3103 3105 3107
3045 3043 3042 3041 3040 3040 3040 3041 3041 3041 3040 3039 3040 3041 3043 3044 3045 3045 3046 3047 3047 3049 3051 3052 3054 3056 3057 3059 3061 3063 3066 3068 3071 3074 3077 3079 3082 3084 3087 3089 3093 3095 3097
3042 3040 3038 3036 3035 3034 3033 3034 3035 3036 3036 3035 3034 3034 3035 3036 3036 3036 3036 3037 3038 3038 3040 3041 3043 3046 3048 3050 3051 3053 3055 3057 3059 3062 3065 3068 3071 3073 3076 3078 3081 3084 3086
3037 3036 3034 3032 3030 3028 3027 3026 3026 3028 3028 3028 3027 3026 3025 3025 3025 3026 3026 3027 3027 3028 3028 3030 3031 3034 3036 3038 3040 3042 3044 3046 3049 3051 3053 3055 3059 3062 3064 3067 3069 3072 3074
3029 3028 3027 3025 3024 3021 3019 3018 3016 3017 3017 3018 3018 3017 3015 3014 3013 3013 3014 3014 3016 3016 3017 3018 3019 3020 3022 3025 3027 3029 3032 3034 3036 3039 3041 3043 3045 3048 3051 3054 3056 3059 3062
3024 3021 3019 3017 3015 3013 3012 3009 3008 3006 3006 3006 3006 3006 3004 3003 3001 3001 3001 3002 3002 3003 3004 3005 3007 3009 3010 3011 3013 3015 3017 3020 3022 3025 3027 3031 3032 3034 3036 3040 3042 3045 3047
3017 3015 3013 3011 3008 3006 3004 3002 3000 2998 2996 2995 2994 2993 2992 2991 2990 2989 2988 2988 2988 2988 2989 2991 2992 2993 2995 2997 2998 3000 3003 3005 3008 3010 3012 3015 3018 3020 3023 3024 3027 3030 3033
3013 3010 3007 3005 3002 3000 2997 2995 2993 2991 2989 2987 2985 2982 2981 2980 2979 2978 2977 2977 2976 2975 2976 2977 2978 2979 2980 2981 2982 2983 2986 2989 2992 2995 2997 2999 3002 3005 3007 3010 3011 3013 3016
3008 3005 3002 2999 2996 2993 2991 2988 2985 2983 2981 2979 2976 2975 2973 2971 2970 2967 2967 2965 2964 2964 2964 2964 2966 2967 2967 2967 2968 2970 2973 2974 2976 2978 2980 2982 2984 2988 2991 2993 2996 2999 3001
3002 2999 2996 2992 2989 2986 2984 2982 2979 2976 2973 2970 2968 2966 2964 2962 2960 2959 2957 2955 2954 2955 2953 2953 2953 2953 2954 2954 2955 2957 2959 2961 2963 2965 2966 2968 2970 2973 2976 2978 2980 2982 2985
2995 2992 2989 2986 2983 2979 2976 2974 2971 2968 2966 2964 2961 2958 2956 2954 2952 2950 2948 2946 2944 2942 2943 2944 2944 2944 2942 2942 2942 2943 2946 2946 2948 2950 2952 2953 2956 2958 2961 2963 2965 2966 2968
2987 2984 2981 2978 2975 2971 2968 2965 2963 2960 2957 2955 2953 2950 2947 2945 2943 2942 2941 2938 2936 2934 2935 2933 2933 2933 2934 2932 2930 2931 2933 2934 2936 2937 2938 2940 2942 2944 2948 2950 2952 2952 2954
2980 2976 2973 2969 2966 2962 2958 2955 2952 2949 2947 2944 2942 2940 2937 2935 2933 2931 2929 2927 2926 2925 2926 2925 2924 2923 2923 2921 2921 2920 2920 2923 2924 2926 2927 2929 2931 2932 2934 2936 2939 2940 2942
2972 2968 2963 2960 2955 2951 2947 2944 2941 2937 2934 2931 2929 2927 2925 2923 2921 2919 2918 2916 2915 2913 2914 2913 2912 2911 2912 2911 2911 2910 2910 2911 2913 2913 2915 2917 2918 2920 2923 2925 2928 2929 2931
2962 2957 2953 2949 2945 2941 2936 2932 2929 2925 2921 2918 2915 2912 2910 2908 2906 2905 2904 2903 2902 2901 2900 2900 2900 2899 2898 2898 2900 2899 2899 2901 2901 2902 2904 2905 2907 2909 2912 2913 2915 2918 2919
2951 2947 2941 2937 2934 2929 2924 2920 2916 2911 2908 2904 2901 2898 2895 2893 2890 2888 2887 2887 2887 2885 2885 2885 2885 2886 2886 2886 2886 2887 2888 2889 2888 2889 2891 2893 2895 2897 2898 2901 2903 2907 2907
2939 2935 2930 2926 2921 2916 2911 2906 2901 2897 2892 2889 2886 2882 2879 2876 2874 2872 2870 2868 2867 2868 2868 2868 2868 2869 2871 2871 2872 2873 2874 2875 2875 2876 2878 2880 2882 2883 2886 2889 2892 2893 2896
2927 2922 2917 2911 2907 2901 2896 2891 2886 2880 2876 2872 2869 2865 2862 2859 2857 2855 2853 2851 2851 2849 2849 2850 2850 2850 2853 2855 2856 2857 2859 2860 2863 2863 2864 2866 2867 2870 2873 2875 2877 2879 2884
2915 2910 2905 2899 2894 2889 2885 2879 2873 2867 2862 2857 2853 2850 2845 2842 2838 2835 2835 2835 2832 2831 2831 2831 2831 2832 2833 2835 2837 2840 2842 2845 2848 2848 2849 2851 2853 2855 2857 2859 2862 2866 2870
Wind_Speed
31 32 31 28 29 30 29 28 28 25 27 27 25 23 20 21 22 23 23 24 25 25 26 26 25 24 24 24 23 22 21 20 19 18 18 18 17 17 16 16 15 15 14
32 32 33 33 32 32 33 32 33 32 30 29 28 27 24 25 26 27 27 27 27 27 28 28 27 27 27 26 25 24 23 21 21 20 20 20 19 19 18 17 16 16 16
24 26 27 27 29 32 35 36 38 39 37 32 32 31 29 27 28 29 29 29 29 29 30 30 30 30 29 28 27 26 25 23 23 22 23 21 21 19 19 18 17 17 16
23 24 24 23 24 27 34 37 36 40 43 40 37 35 31 29 30 32 33 33 32 32 33 32 32 32 32 31 30 29 29 29 27 27 25 24 23 21 20 20 19 19 19
22 21 23 25 29 28 31 35 38 41 43 42 40 38 35 34 33 33 36 37 37 36 36 35 34 34 34 33 33 33 32 32 31 29 29 28 26 25 23 23 22 21 21
24 25 26 24 24 24 28 31 35 38 42 43 42 42 41 40 39 40 40 39 40 40 39 38 37 37 37 36 36 36 36 36 35 35 34 33 32 31 30 29 27 26 25
23 24 24 24 25 24 25 27 30 35 40 43 44 44 43 42 43 43 43 43 44 44 43 42 41 40 40 40 40 39 39 39 39 38 36 36 36 36 35 33 32 30 29
26 27 27 26 25 23 23 25 27 31 36 40 42 44 44 44 44 44 45 45 45 45 47 47 46 44 44 43 44 43 43 42 42 42 41 41 41 40 39 38 37 36 35
27 30 32 31 29 28 25 24 26 29 31 35 39 41 43 44 44 45 46 46 46 46 47 48 48 47 46 46 46 46 46 46 45 44 45 45 44 44 43 43 41 40 40
27 28 28 29 32 35 35 32 27 28 28 32 34 37 40 42 44 46 47 48 47 47 48 49 50 50 49 48 49 49 49 50 49 48 48 48 47 47 47 47 46 45 44
29 29 30 32 33 33 32 32 34 35 36 34 33 36 39 42 45 46 47 50 50 49 49 50 51 52 51 51 51 51 51 52 52 52 52 51 50 51 51 51 50 49 49
31 30 30 31 31 33 35 33 32 32 37 41 40 39 40 41 42 45 46 46 47 48 49 49 50 52 53 54 54 54 53 54 54 54 55 54 54 54 54 54 53 53 53
29 29 30 30 30 30 32 34 34 32 33 37 42 44 41 40 41 43 45 48 48 47 47 47 49 50 51 53 55 55 56 56 56 56 57 57 57 57 56 56 57 56 57
26 26 26 27 28 29 30 30 32 32 31 33 35 39 43 42 40 39 39 40 42 44 46 48 50 50 49 51 53 55 56 58 58 58 59 59 59 59 59 58 59 59 59
23 24 25 26 26 26 26 27 29 29 28 28 29 30 31 35 36 38 39 40 40 39 40 41 43 46 49 50 50 51 52 55 57 59 60 60 60 60 61 62 61 61 61
25 26 27 28 28 28 27 27 27 28 28 28 27 28 27 28 30 30 31 33 35 39 40 41 41 42 43 44 45 47 48 49 50 49 50 53 55 57 58 59 60 61 63
28 28 28 27 27 27 27 25 25 26 26 28 29 28 29 29 29 29 28 30 30 30 31 32 33 35 40 44 47 49 48 48 48 48 49 49 49 49 48 48 49 50 52
27 26 27 27 28 29 29 29 29 28 28 28 27 28 29 30 29 31 32 30 30 29 31 31 31 31 30 32 35 40 42 43 45 47 48 49 50 51 50 50 51 51 51
31 32 31 31 31 33 34 33 33 33 33 32 32 32 32 32 31 31 32 31 31 31 31 31 31 31 31 31 31 34 36 37 36 36 38 40 41 40 41 43 43 45 46
35 36 36 36 36 36 38 39 38 38 37 37 36 36 36 36 36 36 35 35 35 34 34 33 32 31 30 31 32 32 33 34 36 37 37 37 36 36 37 37 39 39 39
38 39 40 40 40 40 41 41 41 42 42 42 41 40 39 40 39 39 38 38 38 38 38 38 37 36 36 33 33 33 34 35 35 35 35 35 35 35 34 34 36 35 35
39 39 40 40 40 41 42 43 43 44 45 45 46 46 45 44 44 43 42 41 41 41 41 41 40 39 39 39 38 37 37 38 37 36 36 35 35 36 35 35 35 35 35
39 40 42 43 42 42 44 45 45 47 48 48 48 49 49 49 49 49 48 47 45 45 45 44 43 42 41 42 41 41 41 41 41 41 39 36 36 36 36 37 37 37 38
42 42 43 44 45 46 46 47 48 49 50 51 51 52 52 52 52 52 52 52 51 50 48 47 47 45 44 43 43 42 42 42 42 42 43 42 41 40 39 38 36 37 38
44 45 45 46 45 44 44 44 44 45 47 48 48 50 51 53 53 53 53 53 53 53 52 51 50 50 48 45 44 43 43 42 42 42 43 44 44 43 42 42 40 38 38
39 38 37 38 38 39 39 38 39 41 43 44 44 45 46 47 48 49 50 48 51 53 52 52 52 51 51 49 47 45 44 43 42 42 44 44 44 46 46 45 45 44 42
Wind_Direction
260 259 260 256 248 242 240 242 237 228 230 235 239 244 249 251 249 249 248 246 243 241 240 238 235 234 232 230 230 231 232 234 236 234 235 235 234 233 233 232 230 228 227
261 262 262 259 253 247 243 244 244 238 229 229 233 238 241 243 244 245 245 246 244 241 240 240 237 235 233 232 232 233 233 231 231 232 232 233 233 232 231 230 230 230 229
261 261 263 262 257 252 249 247 243 239 231 227 229 231 236 241 247 250 250 248 245 243 242 240 237 236 236 234 232 231 231 231 230 229 233 233 234 233 231 231 233 234 234
273 270 266 263 265 259 252 246 241 237 235 229 224 224 228 232 237 240 239 239 240 240 240 239 237 235 235 234 233 230 229 229 229 230 231 231 233 231 231 232 231 232 233
273 272 269 275 277 262 250 246 241 235 233 230 226 224 224 226 228 234 239 239 237 237 238 238 236 235 234 233 232 231 231 232 232 232 231 230 229 231 232 231 231 232 232
285 284 284 280 273 263 249 242 238 232 230 231 230 229 227 228 232 234 232 233 234 235 235 236 235 235 234 234 232 231 231 231 231 231 230 230 229 228 229 230 230 231 230
284 284 282 280 281 272 262 252 241 233 230 231 232 233 232 234 238 240 242 240 236 231 231 232 233 233 233 233 232 232 232 232 233 234 234 234 234 233 234 234 234 235 235
293 292 286 282 279 277 272 265 256 245 236 234 233 234 235 236 239 244 246 246 244 240 237 236 234 233 233 232 232 232 232 232 233 235 235 235 236 236 237 237 237 237 238
309 309 301 297 291 280 274 271 269 265 254 242 238 237 238 239 243 247 250 252 250 244 241 241 240 239 238 237 236 235 233 233 234 234 236 237 237 239 239 240 240 241 241
316 314 314 312 306 300 292 282 273 266 265 260 251 247 246 245 246 249 253 255 255 251 244 241 242 242 242 242 241 239 238 237 236 235 236 238 239 240 241 242 242 243 245
311 307 304 303 303 304 299 291 286 277 270 263 256 249 246 246 248 249 252 257 258 256 253 247 244 244 244 243 244 244 243 242 241 240 238 238 239 241 243 244 245 245 245
312 306 299 296 290 289 290 289 283 274 270 266 263 260 256 252 250 250 251 250 253 256 257 256 253 248 244 244 244 244 245 245 244 244 243 242 241 242 243 245 246 247 248
309 307 305 301 297 292 284 282 281 278 272 262 258 258 257 253 250 249 247 247 246 247 250 255 258 257 255 250 246 245 245 245 245 245 246 246 245 244 243 246 247 247 249
307 306 306 305 302 300 296 291 287 280 275 270 264 260 257 256 255 252 248 245 243 242 242 244 246 247 249 251 252 250 249 248 247 246 246 246 246 246 246 245 246 249 250
311 310 309 308 305 302 299 296 292 288 283 278 274 268 267 265 263 261 261 259 256 251 248 246 244 242 242 242 243 243 245 247 248 248 247 247 248 248 248 248 247 247 247
305 305 305 304 303 300 299 298 295 293 291 287 281 279 276 273 272 269 268 266 264 260 256 254 252 252 250 248 246 246 246 245 245 245 246 247 247 248 249 250 251 251 251
304 304 304 302 301 300 299 300 298 297 298 298 296 293 291 285 281 278 274 268 267 267 266 263 258 255 254 253 253 252 251 252 254 255 255 254 253 253 253 253 254 253 253
306 304 302 302 301 300 299 298 297 295 293 292 291 290 290 290 290 292 291 285 278 274 269 268 268 264 260 259 258 256 254 254 254 254 255 255 256 256 256 255 253 252 252
305 306 305 304 302 300 298 297 297 296 294 293 291 289 287 285 283 281 281 282 283 283 282 278 275 271 268 263 261 262 261 259 258 257 257 257 256 255 257 257 254 254 255
302 302 302 303 302 299 297 296 296 294 292 291 290 288 286 285 283 282 281 279 278 277 275 273 272 270 268 269 267 264 263 264 263 260 258 257 258 256 255 255 256 255 254
299 299 299 299 299 298 297 296 295 294 293 291 290 288 286 284 282 280 279 278 277 276 275 273 272 271 270 266 265 264 263 262 262 261 261 261 259 256 255 255 256 255 252
299 299 298 298 297 296 295 294 293 292 290 289 288 287 287 286 284 282 280 277 276 273 272 270 270 270 269 269 266 264 263 263 262 260 260 259 259 261 259 257 256 256 256
300 299 299 298 298 297 295 293 291 291 289 288 287 286 285 284 284 283 281 278 276 274 273 271 269 267 265 265 265 263 262 262 263 264 261 260 260 258 258 257 256 254 254
301 300 299 298 298 297 296 295 294 292 289 288 286 285 284 282 280 279 279 278 277 275 274 273 271 268 266 264 263 263 262 262 261 261 261 260 258 256 256 257 256 255 255
305 304 303 302 302 300 300 300 299 296 294 292 290 287 284 282 279 278 277 275 274 274 273 271 270 269 268 266 264 262 260 260 259 258 257 257 257 257 257 257 256 255 255
310 310 312 313 311 310 310 308 305 303 301 300 298 295 291 287 283 279 274 270 271 270 270 269 269 268 267 266 264 262 260 258 256 253 253 252 251 251 250 250 251 250 252